Regional Weather Roundup
Issued by NWS Jackson, KY

Home | Current Version | Previous Version | Text Only | Print | Product List | Glossary On
Versions: 1 2 3 4 5 6 7 8 9 10 11 12 13 14 15 16 17 18 19 20 21 22 23 24 25 26 27 28 29 30 31 32 33 34 35 36 37 38 39 40 41 42 43 44 45 46 47 48 49 50
000
ASUS43 KJKL 172019
RWRJKL

EAST KENTUCKY HOURLY WEATHER ROUNDUP
NATIONAL WEATHER SERVICE JACKSON KY
400 PM EDT WED SEP 17 2014

NOTE: "FAIR" INDICATES FEW OR NO CLOUDS BELOW 12,000 FEET WITH
NO SIGNIFICANT WEATHER AND/OR OBSTRUCTIONS TO VISIBILITY.

* THESE REPORTS ARE NOT UNDER NWS QUALITY CONTROL AND MAY NOT
  REPORT WEATHER SUCH AS PRECIPITATION AND FOG.

KYZ079-080-083-085-087-088-110-112-115-119-120-172100
...EASTERN KENTUCKY...

CITY           SKY/WX    TMP DP  RH WIND       PRES   REMARKS
JACKSON        MOSUNNY   70  53  54 CALM      29.99F
LONDON         MOSUNNY   74  54  49 VRB5      29.99F
MONTICELLO*    SUNNY     72  53  51 VRB7      30.02S
WILLIAMSBURG*  MOSUNNY   72  55  56 NW3       29.99S
MIDDLESBORO*   MOSUNNY   73  58  57 NW3       29.96F
HARLAN APT*    PTCLDY    73  52  46 MISG      29.97S
HAZARD APT*    CLEAR     70  52  52 S5        29.98F
BLACK MTN*       N/A     63  55  77 N1          N/A
PIKEVILLE APT* PTSUNNY   66  57  72 N6        29.99
BIG SANDY*     PTCLDY    67  56  68 N3        29.99F
MOREHEAD APT*  MOCLDY    72  50  46 CALM      30.01S
$$

KYZ035-036-041-042-044-050-067-078-099-172100
...CENTRAL KENTUCKY...

CITY           SKY/WX    TMP DP  RH WIND       PRES   REMARKS
MT STERLING*   PTSUNNY   70  52  52 N7        30.01S
FLEMING/MASON* PTSUNNY   66  52  59 CALM      30.02R
DANVILLE*      SUNNY     70  52  52 CALM      30.01F
RICHMOND*      MOSUNNY   70  50  49 CALM      29.99F
LEXINGTON      MOSUNNY   72  54  53 N7        30.00F
FRANKFORT      MOSUNNY   68  51  54 NW5       30.01S
$$

KYZ091>093-OHZ055-061-077-WVZ005-015-034-035-042-172100
...SOUTHERN OHIO/WEST VIRGINIA...

CITY           SKY/WX    TMP DP  RH WIND       PRES   REMARKS
COVINGTON      MOSUNNY   67  49  52 W5        30.01F
COLUMBUS       MOSUNNY   70  45  40 SW7       29.99F
DAYTON         PTSUNNY   65  47  52 CALM      30.03F
WILMINGTON     MOSUNNY   66  47  50 W6        30.01F
HUNTINGTON     PTSUNNY   70  54  56 VRB3      29.97F
CHARLESTON     PTSUNNY   69  57  65 NW3       29.99S
PINEVILLE*     SUNNY     74  63  67 MISG      30.03S
BECKLEY        MOSUNNY   68  52  56 S3        30.00F
BLUEFIELD      PTSUNNY   70  53  54 VRB3      30.02F
$$

VAZ002-007-008-TNZ017-027-036-066-071-172100
...SOUTHWEST VIRGINIA/EAST TENNESSEE...

CITY           SKY/WX    TMP DP  RH WIND       PRES   REMARKS
WISE*          MOSUNNY   70  54  56 N5        30.02S
JONESVILLE*    PTCLDY    75  54  46 CALM      29.98F
ABINGDON*      MOSUNNY   74  57  55 N3        29.97F
BRISTOL        MOSUNNY   77  55  46 NW8       29.95F
KNOXVILLE      MOSUNNY   77  54  44 NW6       29.93F
OAK RIDGE      MOSUNNY   76  55  48 VRB3      29.96F
CROSSVILLE     MOSUNNY   71  51  49 N7        30.00F
NASHVILLE      CLOUDY    73  55  53 NW6       30.00F
$$

...KEY TO REMARKS...
VSB - VISIBILITY IN MILES
WCI - WIND CHILL INDEX
HX  - HEAT INDEX

$$


USA.gov is the U.S. government's official web portal to all federal, state and local government web resources and services.